Humidity-temperature Sensor

Selected Measurement Type: Relative Humidity

 
Relative Humidity [%]     6 entries per hour
Showing data from 5/28/2020 (05:30:00 Z) to 5/25/2020 (00:01:00 Z)
Previous Next [ Day | 3-Days | 7-Days ]
First Last
Prev [ Day | 3-Days | 7-Days ] Next
First Last

Start Time:     :
End Time:     :     
Time (in GMT) :00 :50 :40 :30 :20 :10
Previous Next [ Day | 3-Days | 7-Days ]
First Last
Prev [ Day | 3-Days | 7-Days ] Next
First Last


123 => good data
MM => data is determined as missing
-- => data not received/configured
Back to Top Back to Top
5/28/2020 06:00 to 5:10 -- -- -- 99.85 99.74 99.58
5/28/2020 05:00 to 4:10 99.49 99.22 98.97 98.93 98.83 98.66
5/28/2020 04:00 to 3:10 98.43 98.41 98.35 98.07 97.89 97.66
5/28/2020 03:00 to 2:10 97.70 97.18 97.09 97.07 96.97 96.86
5/28/2020 02:00 to 1:10 96.76 96.45 96.03 95.84 95.70 95.76
5/28/2020 01:00 to 0:10 95.80 95.45 95.24 94.95 94.61 94.65
5/28/2020 00:00 to 23:10 95.13 94.72 94.59 94.47 94.57 94.57
5/27/2020 23:00 to 22:10 94.13 94.15 94.65 94.93 95.26 95.38
5/27/2020 22:00 to 21:10 95.41 95.18 95.20 95.53 95.70 95.72
5/27/2020 21:00 to 20:10 95.82 95.99 96.22 96.61 96.47 96.80
5/27/2020 20:00 to 19:10 96.59 96.84 96.99 96.95 96.89 97.18
5/27/2020 19:00 to 18:10 97.07 97.32 97.20 97.30 97.30 97.45
5/27/2020 18:00 to 17:10 97.55 97.51 97.85 97.85 97.72 97.76
5/27/2020 17:00 to 16:10 97.80 97.82 97.80 97.51 97.41 97.43
5/27/2020 16:00 to 15:10 97.14 97.07 97.09 97.03 96.99 97.12
5/27/2020 15:00 to 14:10 97.24 97.43 97.30 97.82 98.39 99.62
5/27/2020 14:00 to 13:10 -- -- -- -- -- --
5/27/2020 13:00 to 12:10 -- -- -- -- -- --
5/27/2020 12:00 to 11:10 -- -- -- -- -- --
5/27/2020 11:00 to 10:10 -- -- -- -- -- --
5/27/2020 10:00 to 9:10 -- -- -- -- -- --
5/27/2020 09:00 to 8:10 -- -- 99.87 99.81 99.74 99.74
5/27/2020 08:00 to 7:10 99.76 99.64 99.41 99.33 99.18 98.97
5/27/2020 07:00 to 6:10 98.70 98.47 98.49 98.32 98.43 98.43
5/27/2020 06:00 to 5:10 98.28 98.30 98.43 98.53 98.51 98.30
5/27/2020 05:00 to 4:10 98.22 97.99 97.64 97.43 97.20 97.14
5/27/2020 04:00 to 3:10 96.93 96.34 96.24 96.26 96.45 95.82
5/27/2020 03:00 to 2:10 95.55 95.26 94.99 94.68 94.74 94.47
5/27/2020 02:00 to 1:10 93.76 93.72 93.99 94.24 94.01 93.84
5/27/2020 01:00 to 0:10 94.68 95.22 94.76 94.13 94.20 94.59
5/27/2020 00:00 to 23:10 95.53 94.74 94.11 94.53 94.74 94.30
5/26/2020 23:00 to 22:10 95.01 95.20 95.38 95.07 94.95 94.55
5/26/2020 22:00 to 21:10 94.84 95.07 94.82 94.68 94.45 94.49
5/26/2020 21:00 to 20:10 94.40 93.99 93.97 94.20 94.61 94.57
5/26/2020 20:00 to 19:10 94.72 94.34 94.15 94.36 93.70 93.55
5/26/2020 19:00 to 18:10 93.05 93.19 93.55 93.45 93.49 92.82
5/26/2020 18:00 to 17:10 93.28 93.13 92.86 92.17 93.09 92.86
5/26/2020 17:00 to 16:10 92.97 93.59 93.55 92.92 92.86 92.59
5/26/2020 16:00 to 15:10 93.28 93.24 93.24 93.90 93.30 93.28
5/26/2020 15:00 to 14:10 93.53 93.55 93.95 93.80 93.67 93.95
5/26/2020 14:00 to 13:10 93.88 93.61 93.57 94.22 94.51 94.84
5/26/2020 13:00 to 12:10 94.68 94.09 93.95 93.47 93.57 93.90
5/26/2020 12:00 to 11:10 94.45 95.24 95.36 95.18 95.38 95.34
5/26/2020 11:00 to 10:10 95.13 94.76 94.70 94.13 93.86 93.90
5/26/2020 10:00 to 9:10 93.76 92.97 93.11 92.86 91.86 91.44
5/26/2020 09:00 to 8:10 91.90 92.03 93.09 94.20 94.86 95.09
5/26/2020 08:00 to 7:10 95.76 95.78 95.78 95.72 95.82 95.66
5/26/2020 07:00 to 6:10 95.82 95.76 95.61 95.59 95.84 95.74
5/26/2020 06:00 to 5:10 95.43 95.07 94.65 94.63 94.80 95.11
5/26/2020 05:00 to 4:10 95.38 94.78 94.34 93.92 94.07 93.99
5/26/2020 04:00 to 3:10 93.95 93.88 93.80 93.53 93.24 93.19
5/26/2020 03:00 to 2:10 92.78 92.42 92.03 92.32 92.49 91.94
5/26/2020 02:00 to 1:10 91.59 91.19 91.32 92.65 93.24 92.92
5/26/2020 01:00 to 0:10 92.63 92.42 92.03 91.44 91.61 91.38
5/26/2020 00:00 to 23:10 90.38 90.96 91.48 92.11 92.17 92.40
5/25/2020 23:00 to 22:10 92.72 93.11 93.09 93.40 93.92 93.61
5/25/2020 22:00 to 21:10 93.74 93.70 93.84 94.55 94.53 94.72
5/25/2020 21:00 to 20:10 94.34 94.32 94.84 95.01 94.65 95.18
5/25/2020 20:00 to 19:10 94.36 95.13 95.01 94.72 95.22 95.34
5/25/2020 19:00 to 18:10 95.18 95.18 95.38 95.41 95.74 95.84
5/25/2020 18:00 to 17:10 96.09 96.01 95.84 95.70 95.68 95.36
5/25/2020 17:00 to 16:10 95.51 95.91 96.14 96.20 96.36 96.18
5/25/2020 16:00 to 15:10 96.18 96.16 96.57 97.07 97.14 97.20
5/25/2020 15:00 to 14:10 97.43 97.57 97.70 97.68 97.62 97.59
5/25/2020 14:00 to 13:10 97.68 97.87 97.99 98.18 98.41 98.53
5/25/2020 13:00 to 12:10 98.43 97.97 97.89 97.95 97.62 97.20
5/25/2020 12:00 to 11:10 97.45 96.86 96.76 97.16 96.55 96.26
5/25/2020 11:00 to 10:10 96.47 96.41 96.32 96.49 96.09 95.80
5/25/2020 10:00 to 9:10 95.61 95.88 96.49 96.68 96.55 96.66
5/25/2020 09:00 to 8:10 96.91 97.05 97.32 97.51 97.14 97.07
5/25/2020 08:00 to 7:10 97.41 97.34 97.07 97.14 97.43 97.28
5/25/2020 07:00 to 6:10 97.09 97.43 97.74 97.41 96.99 96.64
5/25/2020 06:00 to 5:10 96.45 96.43 96.57 96.01 95.74 95.80
5/25/2020 05:00 to 4:10 95.61 95.63 95.34 95.41 95.76 95.51
5/25/2020 04:00 to 3:10 94.82 94.76 94.61 94.55 94.74 95.20
5/25/2020 03:00 to 2:10 94.82 94.24 94.45 93.80 94.13 93.65
5/25/2020 02:00 to 1:10 94.15 93.59 94.01 93.76 93.59 93.76
5/25/2020 01:00 to 0:10 93.30 93.32 93.09 93.30 92.40 92.74